[[{"header":{"parameterUnit":"m.s-1","parameterCategory":1,"la1":30.2991,"la2":30.254,"lo1":-89.0895,"lo2":-89.0444,"dy":0.0017,"dx":0.0017,"nx":28,"ny":28,"refTime":"2023-07-30T09:00:00:Z","depth":0,"parameterNumber":2,"parameterNumberName":"U-component_of_WINDS"},"data":[0,0,0,0,0,0,0,0,0,0,0,0,0,0,0,0,0,0,0,0,0,0,0,0,0,0,0,0,0,0,0,0,0,0,0,0,0,0,0,0,0,0,0,0,0,0,0,0,0,0,0,0,0,0,0,0,0,0,1.6073,1.6074,0,1.6145,1.6146,1.6147,1.6139,1.6137,1.6136,1.6135,1.6214,1.6217,1.622,0,0,0,0,0,0,0,0,0,0,0,0,0,1.5935,1.5937,1.6073,1.6074,1.6075,1.6145,1.6146,1.6147,1.6139,1.6137,1.6136,1.6135,1.6213,1.6217,1.622,0,0,0,0,0,0,0,0,0,0,0,0,0,1.6,1.5938,1.6073,1.6079,1.608,1.6145,1.6146,1.6147,1.6139,1.6137,1.6136,1.6134,1.6212,1.6216,1.6221,1.6285,0,0,1.6236,1.6238,0,0,0,0,0,0,0,0,1.5996,1.6005,1.6077,1.6079,1.608,1.6131,1.6126,1.6194,1.6139,1.6117,1.6135,1.6133,1.6188,1.6195,1.6212,1.6289,1.6292,1.6236,1.6239,1.6241,1.6242,0,0,0,0,0,0,0,1.5992,1.6002,1.6102,1.6078,1.608,1.608,1.6088,1.6139,1.6162,1.6119,1.6118,1.6127,1.6189,1.6208,1.6214,1.6293,1.6236,1.624,1.6243,1.6245,1.6431,1.6433,0,0,0,0,0,0,1.5985,1.5998,1.6099,1.6104,1.6033,1.6084,1.6092,1.6116,1.6161,1.6166,1.6128,1.6126,1.62,1.6208,1.6217,1.6298,1.6241,1.6245,1.6248,1.6429,1.6431,1.6434,0,0,0,0,0,0,1.5982,1.5994,1.6096,1.6051,1.6064,1.6088,1.6116,1.6119,1.6138,1.6168,1.6172,1.6143,1.6199,1.621,1.6269,1.63,1.6247,1.6252,1.6426,1.643,1.6432,1.6459,0,0,0,0,0,0,1.5978,1.5993,1.6016,1.6051,1.6066,1.6145,1.6117,1.6121,1.6145,1.6143,1.6183,1.6188,1.6199,1.6262,1.6274,1.6306,1.6256,1.6424,1.6428,1.6431,1.6455,1.6462,1.6468,0,0,0,0,0,1.5973,1.6021,1.6017,1.6029,1.6095,1.6147,1.6156,1.6166,1.6148,1.6173,1.6192,1.6187,1.6294,1.6268,1.6281,1.6315,1.6422,1.6427,1.6431,1.6452,1.6461,1.6468,0,0,0,0,0,0,1.5989,1.6025,1.6022,1.6082,1.6111,1.6146,1.6177,1.6174,1.6211,1.6208,1.622,1.6229,1.6289,1.6308,1.6277,1.6382,1.6356,1.6364,1.6368,1.6376,1.6382,1.6378,1.626,0,0,0,0,0,1.6,1.6037,1.6067,1.6117,1.6132,1.6152,1.6175,1.618,1.6212,1.6225,1.6249,1.6281,1.6323,1.635,1.639,1.6457,1.6468,1.6488,1.6494,1.6499,1.6507,1.6547,1.6558,1.6449,1.6449,1.6449,0,0,1.6022,1.6046,1.6069,1.6121,1.6145,1.6186,1.6163,1.6206,1.6238,1.6232,1.6289,1.6308,1.6346,1.641,1.644,1.6428,1.6539,1.6505,1.6509,1.6514,1.6553,1.6564,1.6573,1.6452,1.6451,1.6451,0,0,1.6084,1.6105,1.6151,1.6175,1.621,1.6224,1.6235,1.627,1.6282,1.6339,1.6337,1.6375,1.6445,1.6473,1.6496,1.6571,1.6569,1.6584,1.662,1.6659,1.6668,1.6675,1.6705,1.6716,1.659,1.6591,1.6591,0,1.6108,1.6168,1.6175,1.622,1.6244,1.624,1.6288,1.6311,1.6359,1.6377,1.6362,1.6452,1.6477,1.6549,1.6568,1.6586,1.6601,1.658,1.6665,1.6673,1.6681,1.671,1.672,1.6592,1.6592,1.6592,1.6592,0,1.6197,1.6239,1.6272,1.6317,1.6345,1.6391,1.6408,1.6436,1.6439,1.6454,1.6515,1.6544,1.6591,1.6608,1.6611,1.6682,1.6674,1.6662,1.6637,1.6693,1.672,1.6731,1.6595,1.6594,1.6594,1.6593,0,0,1.6272,1.6321,1.6334,1.6356,1.6395,1.6429,1.6476,1.6521,1.6546,1.6579,1.6621,1.6682,1.6672,1.6698,1.6705,1.6739,1.6801,1.6724,1.6725,1.674,1.6885,1.6895,1.6908,1.6798,1.68,1.6802,1.6883,0,1.6341,1.6422,1.6431,1.6506,1.6546,1.6544,1.6585,1.6616,1.6632,1.667,1.6689,1.6733,1.6714,1.6731,1.6764,1.6786,1.6831,1.678,1.6841,1.6843,1.6834,1.6922,1.6933,1.7007,1.6893,1.6895,1.6896,0,1.6431,1.6467,1.6545,1.6582,1.6599,1.6636,1.668,1.6715,1.6751,1.676,1.6791,1.6794,1.6845,1.6816,1.689,1.6856,1.6881,1.6896,1.6899,1.6907,1.6875,1.6935,1.7031,1.7043,1.6912,1.6911,1.691,0,1.6482,1.655,1.6606,1.6624,1.6667,1.6694,1.6714,1.6747,1.6775,1.6813,1.6832,1.6875,1.6901,1.6936,1.6952,1.6928,1.7026,1.6997,1.7038,1.7038,1.7061,1.706,1.7165,1.7072,1.7072,1.7072,1.7071,0,1.656,1.6608,1.663,1.6665,1.6721,1.6731,1.6787,1.6805,1.6836,1.6876,1.6876,1.6915,1.6932,1.6974,1.6986,1.7048,1.7058,1.707,1.7073,1.7071,1.707,1.709,1.7087,1.7075,1.7074,1.7073,1.7073,0,1.6627,1.6642,1.6704,1.674,1.6751,1.679,1.6822,1.6858,1.6873,1.6925,1.6938,1.6964,1.7013,1.7032,1.7092,1.7101,1.7173,1.717,1.7161,1.7162,1.7204,1.7201,1.7327,1.7346,1.7238,1.7239,1.724,0,1.6676,1.6714,1.6754,1.6781,1.6801,1.6844,1.6872,1.6884,1.6914,1.6958,1.6989,1.7038,1.7078,1.7158,1.7184,1.7231,1.7232,1.7273,1.7239,1.7238,1.7237,1.7236,1.7241,1.728,1.7282,1.7282,1.7283,0,1.6764,1.677,1.6809,1.6853,1.6886,1.6921,1.6954,1.6977,1.6995,1.7028,1.7079,1.711,1.7172,1.7222,1.7271,1.7294,1.7293,1.7293,1.7306,1.7306,1.73,1.7307,1.7181,1.7291,1.729,1.729,1.7289,1.7289,1.6826,1.6861,1.6895,1.694,1.6966,1.6998,1.7034,1.7055,1.7096,1.7147,1.7152,1.7207,1.7245,1.731,1.7335,1.738,1.7369,1.7387,1.7392,1.7397,1.7401,1.729,1.7389,1.7388,1.7388,1.7388,1.7388,0,1.6917,1.6939,1.6979,1.7027,1.7063,1.7057,1.7094,1.7126,1.7174,1.7208,1.7248,1.7307,1.7356,1.7386,1.7436,1.7466,1.7468,1.7479,1.7479,1.7485,1.7406,1.7392,1.7478,1.7478,1.7478,1.7478,1.7478,1.7478,1.6968,1.7027,1.7038,1.7111,1.7134,1.7187,1.7209,1.724,1.7268,1.7334,1.7374,1.7392,1.7426,1.7478,1.7524,1.7532,1.7552,1.7565,1.7573,1.7499,1.749,1.7481,1.7468,1.7569,1.7569,1.7648,1.7649,1.7649]},{"header":{"parameterUnit":"m.s-1","parameterCategory":1,"la1":30.2991,"la2":30.254,"lo1":-89.0895,"lo2":-89.0444,"dy":0.0017,"dx":0.0017,"nx":28,"ny":28,"refTime":"2023-07-30T09:00:00:Z","depth":0,"parameterNumber":3,"parameterNumberName":"V-component_of_WINDS"},"data":[0,0,0,0,0,0,0,0,0,0,0,0,0,0,0,0,0,0,0,0,0,0,0,0,0,0,0,0,0,0,0,0,0,0,0,0,0,0,0,0,0,0,0,0,0,0,0,0,0,0,0,0,0,0,0,0,0,0,0.1667,0.1669,0,0.1785,0.1787,0.1788,0.1779,0.1777,0.1775,0.1773,0.1895,0.19,0.1905,0,0,0,0,0,0,0,0,0,0,0,0,0,0.1432,0.1436,0.1667,0.1669,0.167,0.1785,0.1787,0.1788,0.1779,0.1777,0.1775,0.1772,0.1893,0.1899,0.1905,0,0,0,0,0,0,0,0,0,0,0,0,0,0.1541,0.1438,0.1667,0.1679,0.1681,0.1785,0.1787,0.1789,0.1779,0.1777,0.1774,0.1771,0.1892,0.1899,0.1906,0.2005,0,0,0.1928,0.1932,0,0,0,0,0,0,0,0,0.1534,0.1549,0.1676,0.1679,0.1681,0.1764,0.1748,0.1861,0.178,0.1742,0.1773,0.177,0.1854,0.1864,0.1892,0.2011,0.2016,0.1929,0.1934,0.1937,0.1939,0,0,0,0,0,0,0,0.1527,0.1544,0.1714,0.1678,0.1681,0.1678,0.1691,0.177,0.1812,0.1745,0.1745,0.1759,0.1855,0.1885,0.1895,0.2018,0.1929,0.1935,0.194,0.1943,0.2219,0.2221,0,0,0,0,0,0,0.1517,0.1538,0.171,0.1717,0.16,0.1685,0.1699,0.174,0.1811,0.1819,0.1761,0.1758,0.1874,0.1886,0.1899,0.2016,0.1937,0.1944,0.1948,0.2216,0.2219,0.2222,0,0,0,0,0,0,0.1512,0.1532,0.1705,0.1628,0.1649,0.1692,0.1739,0.1744,0.1774,0.1823,0.183,0.1784,0.1872,0.1889,0.1978,0.2021,0.1947,0.1954,0.2212,0.2217,0.2221,0.2254,0,0,0,0,0,0,0.1505,0.153,0.1569,0.1629,0.1654,0.1783,0.1741,0.1748,0.1787,0.1784,0.1847,0.1854,0.1871,0.1967,0.1985,0.2029,0.1959,0.2209,0.2214,0.222,0.2249,0.2259,0.2267,0,0,0,0,0,0.1497,0.1575,0.1571,0.1592,0.1703,0.1785,0.1799,0.1817,0.1791,0.1829,0.1859,0.1852,0.2013,0.1976,0.1996,0.2044,0.2206,0.2213,0.2219,0.2245,0.2257,0.2267,0,0,0,0,0,0,0.152,0.1583,0.1579,0.1679,0.1727,0.1783,0.1833,0.183,0.1886,0.1881,0.1901,0.1915,0.2004,0.2033,0.199,0.2141,0.2106,0.2117,0.2119,0.213,0.2139,0.2129,0.1965,0,0,0,0,0,0.1537,0.1599,0.165,0.1733,0.1757,0.1791,0.1827,0.1837,0.1887,0.1907,0.1944,0.1993,0.2054,0.2094,0.2154,0.2253,0.2265,0.2296,0.2305,0.2312,0.2321,0.2372,0.2385,0.2244,0.2244,0.2244,0,0,0.1573,0.1614,0.1652,0.1739,0.1777,0.1839,0.1808,0.1876,0.1922,0.1918,0.2002,0.2031,0.2087,0.2181,0.2224,0.2208,0.2362,0.232,0.2326,0.2331,0.238,0.2393,0.2405,0.2248,0.2248,0.2247,0,0,0.1668,0.1707,0.1779,0.1817,0.1874,0.1895,0.1912,0.1969,0.1987,0.2073,0.2069,0.2124,0.2231,0.2269,0.2303,0.2409,0.2404,0.2428,0.2475,0.2524,0.2535,0.2545,0.258,0.2593,0.2437,0.2437,0.2437,0,0.1705,0.1799,0.1816,0.1884,0.192,0.1918,0.1989,0.2026,0.21,0.2125,0.2106,0.2236,0.2274,0.2374,0.24,0.2428,0.2446,0.2421,0.2533,0.2543,0.2552,0.2586,0.2599,0.244,0.2439,0.2439,0.2439,0,0.1839,0.1904,0.1955,0.2024,0.2068,0.2137,0.2163,0.2205,0.221,0.2233,0.2318,0.2363,0.2429,0.2454,0.2461,0.2555,0.2543,0.2528,0.2493,0.2568,0.2599,0.2612,0.2443,0.2442,0.2441,0.2441,0,0,0.1954,0.203,0.2048,0.2078,0.2139,0.219,0.2258,0.2322,0.2355,0.2406,0.2462,0.255,0.2536,0.2574,0.2585,0.2628,0.2706,0.2608,0.2609,0.2622,0.2808,0.2817,0.2832,0.2703,0.2705,0.2707,0.2802,0,0.2053,0.2174,0.219,0.2296,0.2354,0.2351,0.241,0.2454,0.2477,0.2529,0.2554,0.2615,0.2593,0.2615,0.2659,0.2687,0.2743,0.2681,0.2753,0.2755,0.2737,0.2849,0.286,0.2947,0.2815,0.2818,0.2819,0,0.2186,0.2238,0.2349,0.2399,0.2424,0.2477,0.2535,0.2586,0.2634,0.2647,0.2688,0.2693,0.2761,0.2724,0.2818,0.2775,0.2805,0.2823,0.2827,0.2833,0.279,0.2855,0.2976,0.2988,0.2839,0.2838,0.2836,0,0.2254,0.2352,0.243,0.2457,0.2518,0.2554,0.2582,0.2627,0.2664,0.2715,0.2738,0.2797,0.2828,0.2873,0.2892,0.2864,0.2983,0.2949,0.2994,0.2994,0.3018,0.3016,0.3143,0.3042,0.3042,0.3042,0.3042,0,0.2362,0.2429,0.2461,0.2509,0.2584,0.2601,0.2674,0.27,0.274,0.2792,0.2795,0.2843,0.2867,0.2918,0.2934,0.3007,0.3022,0.3033,0.3036,0.3032,0.303,0.3051,0.3044,0.3045,0.3045,0.3044,0.3043,0,0.245,0.2475,0.2559,0.2609,0.2624,0.2676,0.2719,0.2764,0.2786,0.2851,0.2868,0.2901,0.2962,0.2986,0.3061,0.3071,0.3154,0.3154,0.3137,0.3138,0.3181,0.3175,0.3323,0.3342,0.3231,0.3233,0.3233,0,0.2516,0.2568,0.2623,0.2657,0.2685,0.2741,0.2777,0.2796,0.2833,0.289,0.2928,0.2989,0.3038,0.3134,0.3165,0.3221,0.3221,0.3269,0.3229,0.3222,0.3218,0.3213,0.3217,0.3275,0.3276,0.3277,0.3278,0,0.263,0.2638,0.269,0.2746,0.2789,0.2834,0.2878,0.2906,0.2931,0.2972,0.3034,0.3072,0.3146,0.3205,0.3262,0.329,0.3287,0.329,0.3303,0.3298,0.3285,0.3289,0.3154,0.3287,0.3286,0.3285,0.3285,0.3284,0.2707,0.2751,0.2795,0.2852,0.2887,0.2927,0.2971,0.2997,0.3048,0.311,0.3118,0.3183,0.3227,0.3304,0.3333,0.3383,0.337,0.339,0.3395,0.3398,0.34,0.3279,0.3394,0.3394,0.3394,0.3394,0.3393,0,0.2818,0.2845,0.2898,0.2957,0.3002,0.2996,0.3043,0.308,0.3137,0.3178,0.3225,0.3294,0.335,0.3385,0.3441,0.3474,0.3474,0.3488,0.3485,0.349,0.341,0.3391,0.3487,0.3487,0.3487,0.3487,0.3487,0.3487,0.288,0.2953,0.2967,0.3056,0.3084,0.3146,0.3173,0.3209,0.3242,0.3318,0.3365,0.3386,0.3424,0.3483,0.3533,0.3542,0.3561,0.3575,0.3582,0.3506,0.3496,0.3487,0.347,0.358,0.358,0.3658,0.3659,0.366]}]]